Time,TemperatureF,DewpointF,PressureIn,WindDirection,WindDirectionDegrees,WindSpeedMPH,WindSpeedGustMPH,Humidity,HourlyPrecipIn,Conditions,Clouds,dailyrainin,SoftwareType,DateUTC
2013-02-18 00:00:00,29.3,19.7,30.11,SSE,152,5.0,5.0,67,0.00,,,0.00,Wunderground v.1.15,2013-02-18 06:00:00,
2013-02-18 00:10:00,29.4,19.8,30.10,SE,133,5.0,7.0,67,0.00,,,0.00,Wunderground v.1.15,2013-02-18 06:10:00,
2013-02-18 00:20:00,29.4,19.8,30.10,SSE,153,5.0,7.0,67,0.00,,,0.00,Wunderground v.1.15,2013-02-18 06:20:00,
2013-02-18 00:25:00,29.4,19.8,30.10,SE,124,5.0,7.0,67,0.00,,,0.00,Wunderground v.1.15,2013-02-18 06:25:00,
2013-02-18 00:35:00,29.5,19.9,30.10,ESE,121,5.0,9.0,67,0.00,,,0.00,Wunderground v.1.15,2013-02-18 06:35:00,
2013-02-18 00:40:00,29.4,19.8,30.09,SSE,149,6.0,6.0,67,0.00,,,0.00,Wunderground v.1.15,2013-02-18 06:40:00,
2013-02-18 00:50:00,29.5,19.9,30.08,ESE,119,6.0,6.0,67,0.00,,,0.00,Wunderground v.1.15,2013-02-18 06:50:00,
2013-02-18 00:55:00,29.6,20.0,30.08,SSE,147,6.0,6.0,67,0.00,,,0.00,Wunderground v.1.15,2013-02-18 06:55:00,
2013-02-18 01:05:00,29.7,20.1,30.08,SSE,156,6.0,6.0,67,0.00,,,0.00,Wunderground v.1.15,2013-02-18 07:05:00,
2013-02-18 01:10:00,29.7,20.1,30.07,SE,136,6.0,8.0,67,0.00,,,0.00,Wunderground v.1.15,2013-02-18 07:10:00,
2013-02-18 01:15:00,29.7,20.1,30.07,SE,144,6.0,8.0,67,0.00,,,0.00,Wunderground v.1.15,2013-02-18 07:15:00,
2013-02-18 01:25:00,29.8,20.2,30.06,ESE,111,6.0,7.0,67,0.00,,,0.00,Wunderground v.1.15,2013-02-18 07:25:00,
2013-02-18 01:35:00,30.0,20.4,30.06,SSE,148,6.0,6.0,67,0.00,,,0.00,Wunderground v.1.15,2013-02-18 07:35:00,
2013-02-18 01:45:00,30.0,20.4,30.06,SE,144,6.0,8.0,67,0.00,,,0.00,Wunderground v.1.15,2013-02-18 07:45:00,
2013-02-18 01:50:00,30.0,20.4,30.06,SE,124,6.0,6.0,67,0.00,,,0.00,Wunderground v.1.15,2013-02-18 07:50:00,
2013-02-18 01:55:00,30.0,20.4,30.06,SE,143,6.0,8.0,67,0.00,,,0.00,Wunderground v.1.15,2013-02-18 07:55:00,
2013-02-18 02:05:00,30.1,20.5,30.05,SE,142,6.0,6.0,67,0.00,,,0.00,Wunderground v.1.15,2013-02-18 08:05:00,
2013-02-18 02:10:00,30.1,20.5,30.05,SSE,150,5.0,6.0,67,0.00,,,0.00,Wunderground v.1.15,2013-02-18 08:10:00,
2013-02-18 02:15:00,30.1,20.1,30.05,ESE,121,6.0,6.0,66,0.00,,,0.00,Wunderground v.1.15,2013-02-18 08:15:00,
2013-02-18 02:25:00,30.3,20.3,30.04,SSE,166,6.0,12.0,66,0.00,,,0.00,Wunderground v.1.15,2013-02-18 08:25:00,
2013-02-18 02:30:00,30.3,20.3,30.03,East,101,6.0,8.0,66,0.00,,,0.00,Wunderground v.1.15,2013-02-18 08:30:00,
2013-02-18 02:40:00,30.6,20.2,30.03,SE,130,7.0,7.0,65,0.00,,,0.00,Wunderground v.1.15,2013-02-18 08:40:00,
2013-02-18 02:45:00,30.7,20.3,30.03,SSE,163,6.0,8.0,65,0.00,,,0.00,Wunderground v.1.15,2013-02-18 08:45:00,
2013-02-18 02:55:00,30.8,20.4,30.02,SSE,152,7.0,7.0,65,0.00,,,0.00,Wunderground v.1.15,2013-02-18 08:55:00,
2013-02-18 03:05:00,30.6,20.6,30.02,SE,140,7.0,9.0,66,0.00,,,0.00,Wunderground v.1.15,2013-02-18 09:05:00,
2013-02-18 03:15:00,30.5,20.8,30.01,SSE,159,7.0,7.0,67,0.00,,,0.00,Wunderground v.1.15,2013-02-18 09:15:00,
2013-02-18 03:25:00,30.4,21.1,30.01,SSE,152,6.0,7.0,68,0.00,,,0.00,Wunderground v.1.15,2013-02-18 09:25:00,
2013-02-18 03:30:00,30.3,21.0,30.01,SE,144,6.0,6.0,68,0.00,,,0.00,Wunderground v.1.15,2013-02-18 09:30:00,
2013-02-18 03:40:00,30.3,21.3,30.00,ESE,118,6.0,7.0,69,0.00,,,0.00,Wunderground v.1.15,2013-02-18 09:40:00,
2013-02-18 03:45:00,30.3,21.3,30.00,SE,128,6.0,7.0,69,0.00,,,0.00,Wunderground v.1.15,2013-02-18 09:45:00,
2013-02-18 03:50:00,30.4,21.4,30.00,SE,138,6.0,6.0,69,0.00,,,0.00,Wunderground v.1.15,2013-02-18 09:50:00,
2013-02-18 04:00:00,30.7,21.7,30.00,SE,140,7.0,7.0,69,0.00,,,0.00,Wunderground v.1.15,2013-02-18 10:00:00,
2013-02-18 04:10:00,31.0,21.7,30.00,SSE,161,8.0,12.0,68,0.00,,,0.00,Wunderground v.1.15,2013-02-18 10:10:00,
2013-02-18 04:15:00,31.2,21.9,30.00,SSE,153,8.0,12.0,68,0.00,,,0.00,Wunderground v.1.15,2013-02-18 10:15:00,
2013-02-18 04:20:00,31.4,22.1,30.00,SSE,161,8.0,8.0,68,0.00,,,0.00,Wunderground v.1.15,2013-02-18 10:20:00,
2013-02-18 04:30:00,31.5,21.8,29.99,SSE,158,8.0,8.0,67,0.00,,,0.00,Wunderground v.1.15,2013-02-18 10:30:00,
2013-02-18 04:40:00,31.6,21.9,29.99,South,187,8.0,12.0,67,0.00,,,0.00,Wunderground v.1.15,2013-02-18 10:40:00,
2013-02-18 04:45:00,31.6,21.9,29.99,SSE,155,8.0,13.0,67,0.00,,,0.00,Wunderground v.1.15,2013-02-18 10:45:00,
2013-02-18 04:50:00,31.6,22.2,29.99,ESE,117,9.0,9.0,68,0.00,,,0.00,Wunderground v.1.15,2013-02-18 10:50:00,
2013-02-18 05:00:00,31.6,22.2,29.98,SE,138,9.0,11.0,68,0.00,,,0.00,Wunderground v.1.15,2013-02-18 11:00:00,
2013-02-18 05:05:00,31.5,22.1,29.98,SE,146,8.0,11.0,68,0.00,,,0.00,Wunderground v.1.15,2013-02-18 11:05:00,
2013-02-18 05:10:00,31.5,22.1,29.98,SSE,150,8.0,10.0,68,0.00,,,0.00,Wunderground v.1.15,2013-02-18 11:10:00,
2013-02-18 05:20:00,31.6,22.6,29.98,SSE,151,8.0,8.0,69,0.00,,,0.00,Wunderground v.1.15,2013-02-18 11:20:00,
2013-02-18 05:25:00,31.6,22.6,29.98,South,171,8.0,8.0,69,0.00,,,0.00,Wunderground v.1.15,2013-02-18 11:25:00,
2013-02-18 05:35:00,31.7,22.7,29.97,SE,145,8.0,13.0,69,0.00,,,0.00,Wunderground v.1.15,2013-02-18 11:35:00,
2013-02-18 05:40:00,31.7,22.7,29.97,SSE,157,8.0,8.0,69,0.00,,,0.00,Wunderground v.1.15,2013-02-18 11:40:00,
2013-02-18 05:45:00,31.8,22.8,29.97,SSE,156,8.0,8.0,69,0.00,,,0.00,Wunderground v.1.15,2013-02-18 11:45:00,
2013-02-18 05:55:00,31.8,23.1,29.96,SSE,160,9.0,9.0,70,0.00,,,0.00,Wunderground v.1.15,2013-02-18 11:55:00,
2013-02-18 06:05:00,32.1,23.4,29.95,South,184,9.0,13.0,70,0.00,,,0.00,Wunderground v.1.15,2013-02-18 12:05:00,
2013-02-18 06:15:00,32.4,23.7,29.95,SE,127,9.0,11.0,70,0.00,,,0.00,Wunderground v.1.15,2013-02-18 12:15:00,
2013-02-18 06:25:00,32.7,24.0,29.94,SSE,163,9.0,10.0,70,0.00,,,0.00,Wunderground v.1.15,2013-02-18 12:25:00,
2013-02-18 06:30:00,32.8,24.1,29.94,SE,145,10.0,11.0,70,0.00,,,0.00,Wunderground v.1.15,2013-02-18 12:30:00,
2013-02-18 06:40:00,33.0,24.3,29.93,SSE,155,11.0,11.0,70,0.00,,,0.00,Wunderground v.1.15,2013-02-18 12:40:00,
2013-02-18 06:50:00,33.2,24.5,29.93,SSE,156,11.0,17.0,70,0.00,,,0.00,Wunderground v.1.15,2013-02-18 12:50:00,
2013-02-18 07:00:00,33.2,24.8,29.93,SSE,168,10.0,10.0,71,0.00,,,0.00,Wunderground v.1.15,2013-02-18 13:00:00,
2013-02-18 07:10:00,33.5,25.1,29.93,South,186,9.0,11.0,71,0.00,,,0.00,Wunderground v.1.15,2013-02-18 13:10:00,
2013-02-18 07:15:00,33.8,25.4,29.93,SSE,164,10.0,11.0,71,0.00,,,0.00,Wunderground v.1.15,2013-02-18 13:15:00,
2013-02-18 07:20:00,34.2,25.8,29.93,SSE,157,10.0,10.0,71,0.00,,,0.00,Wunderground v.1.15,2013-02-18 13:20:00,
2013-02-18 07:25:00,34.6,25.8,29.93,SSE,161,10.0,15.0,70,0.00,,,0.00,Wunderground v.1.15,2013-02-18 13:25:00,
2013-02-18 07:35:00,35.3,26.5,29.93,SE,146,10.0,11.0,70,0.00,,,0.00,Wunderground v.1.15,2013-02-18 13:35:00,
2013-02-18 07:45:00,35.9,26.7,29.93,SW,225,11.0,13.0,69,0.00,,,0.00,Wunderground v.1.15,2013-02-18 13:45:00,
2013-02-18 07:55:00,36.4,27.2,29.92,SSE,163,10.0,11.0,69,0.00,,,0.00,Wunderground v.1.15,2013-02-18 13:55:00,
2013-02-18 08:00:00,36.9,27.7,29.92,SSE,161,11.0,11.0,69,0.00,,,0.00,Wunderground v.1.15,2013-02-18 14:00:00,
2013-02-18 08:10:00,38.1,28.8,29.92,SSE,153,11.0,12.0,69,0.00,,,0.00,Wunderground v.1.15,2013-02-18 14:10:00,
2013-02-18 08:15:00,38.7,29.0,29.92,SSE,162,11.0,12.0,68,0.00,,,0.00,Wunderground v.1.15,2013-02-18 14:15:00,
2013-02-18 08:20:00,39.2,29.5,29.92,SSE,161,11.0,12.0,68,0.00,,,0.00,Wunderground v.1.15,2013-02-18 14:20:00,
2013-02-18 08:30:00,40.2,30.1,29.92,SSE,155,12.0,21.0,67,0.00,,,0.00,Wunderground v.1.15,2013-02-18 14:30:00,
2013-02-18 08:35:00,40.5,30.4,29.91,SSE,167,11.0,21.0,67,0.00,,,0.00,Wunderground v.1.15,2013-02-18 14:35:00,
2013-02-18 08:45:00,41.3,30.8,29.91,SSE,152,11.0,11.0,66,0.00,,,0.00,Wunderground v.1.15,2013-02-18 14:45:00,
2013-02-18 08:55:00,41.8,31.3,29.90,South,180,10.0,16.0,66,0.00,,,0.00,Wunderground v.1.15,2013-02-18 14:55:00,
2013-02-18 09:05:00,42.9,32.3,29.90,SSE,161,11.0,13.0,66,0.00,,,0.00,Wunderground v.1.15,2013-02-18 15:05:00,
2013-02-18 09:10:00,43.6,33.0,29.89,SSE,153,10.0,12.0,66,0.00,,,0.00,Wunderground v.1.15,2013-02-18 15:10:00,
2013-02-18 09:20:00,45.6,34.5,29.89,South,186,10.0,16.0,65,0.00,,,0.00,Wunderground v.1.15,2013-02-18 15:20:00,
2013-02-18 09:30:00,47.1,35.1,29.89,South,178,10.0,10.0,63,0.00,,,0.00,Wunderground v.1.15,2013-02-18 15:30:00,
2013-02-18 09:40:00,48.1,35.3,29.88,SSE,161,11.0,11.0,61,0.00,,,0.00,Wunderground v.1.15,2013-02-18 15:40:00,
2013-02-18 09:45:00,48.2,35.4,29.89,SSE,159,11.0,19.0,61,0.00,,,0.00,Wunderground v.1.15,2013-02-18 15:45:00,
2013-02-18 09:55:00,48.0,35.2,29.88,SW,218,12.0,13.0,61,0.00,,,0.00,Wunderground v.1.15,2013-02-18 15:55:00,
2013-02-18 10:00:00,47.7,35.7,29.88,SE,146,12.0,12.0,63,0.00,,,0.00,Wunderground v.1.15,2013-02-18 16:00:00,
2013-02-18 10:10:00,48.1,36.1,29.87,South,184,11.0,11.0,63,0.00,,,0.00,Wunderground v.1.15,2013-02-18 16:10:00,
2013-02-18 10:15:00,48.7,36.7,29.87,SSE,165,11.0,21.0,63,0.00,,,0.00,Wunderground v.1.15,2013-02-18 16:15:00,
2013-02-18 10:20:00,49.4,37.3,29.87,SSW,212,11.0,11.0,63,0.00,,,0.00,Wunderground v.1.15,2013-02-18 16:20:00,
2013-02-18 10:30:00,51.2,38.6,29.86,SSE,154,10.0,18.0,62,0.00,,,0.00,Wunderground v.1.15,2013-02-18 16:30:00,
2013-02-18 10:35:00,51.5,38.9,29.86,South,169,11.0,18.0,62,0.00,,,0.00,Wunderground v.1.15,2013-02-18 16:35:00,
2013-02-18 10:40:00,51.8,39.6,29.86,SSW,212,10.0,11.0,63,0.00,,,0.00,Wunderground v.1.15,2013-02-18 16:40:00,
2013-02-18 10:50:00,51.7,39.5,29.86,SW,221,11.0,12.0,63,0.00,,,0.00,Wunderground v.1.15,2013-02-18 16:50:00,
2013-02-18 11:00:00,52.9,41.0,29.86,South,173,12.0,18.0,64,0.00,,,0.00,Wunderground v.1.15,2013-02-18 17:00:00,
2013-02-18 11:05:00,53.2,40.9,29.86,South,185,12.0,18.0,63,0.00,,,0.00,Wunderground v.1.15,2013-02-18 17:05:00,
2013-02-18 11:15:00,53.7,41.8,29.85,SSW,196,13.0,17.0,64,0.00,,,0.00,Wunderground v.1.15,2013-02-18 17:15:00,
2013-02-18 11:25:00,54.5,42.2,29.85,SSW,205,15.0,20.0,63,0.00,,,0.00,Wunderground v.1.15,2013-02-18 17:25:00,
2013-02-18 11:30:00,54.7,42.8,29.85,SSE,150,15.0,15.0,64,0.00,,,0.00,Wunderground v.1.15,2013-02-18 17:30:00,
2013-02-18 11:35:00,55.0,42.6,29.84,SSE,154,16.0,16.0,63,0.00,,,0.00,Wunderground v.1.15,2013-02-18 17:35:00,
2013-02-18 11:45:00,55.6,43.2,29.84,South,173,15.0,18.0,63,0.00,,,0.00,Wunderground v.1.15,2013-02-18 17:45:00,
2013-02-18 11:55:00,55.1,43.1,29.84,SSW,200,13.0,17.0,64,0.00,,,0.00,Wunderground v.1.15,2013-02-18 17:55:00,
2013-02-18 12:00:00,54.3,42.8,29.84,South,182,14.0,17.0,65,0.00,,,0.00,Wunderground v.1.15,2013-02-18 18:00:00,
2013-02-18 12:10:00,52.7,42.4,29.83,SSW,195,12.0,12.0,68,0.00,,,0.00,Wunderground v.1.15,2013-02-18 18:10:00,
2013-02-18 12:15:00,52.4,42.5,29.82,South,174,11.0,12.0,69,0.00,,,0.00,Wunderground v.1.15,2013-02-18 18:15:00,
2013-02-18 12:25:00,52.2,42.3,29.82,SSW,211,10.0,10.0,69,0.00,,,0.00,Wunderground v.1.15,2013-02-18 18:25:00,
2013-02-18 12:35:00,51.9,42.4,29.82,SSE,164,11.0,14.0,70,0.00,,,0.00,Wunderground v.1.15,2013-02-18 18:35:00,
2013-02-18 12:40:00,51.9,42.4,29.81,SSE,149,11.0,12.0,70,0.00,,,0.00,Wunderground v.1.15,2013-02-18 18:40:00,
2013-02-18 12:50:00,52.0,42.9,29.81,SSW,210,10.0,10.0,71,0.00,,,0.00,Wunderground v.1.15,2013-02-18 18:50:00,
2013-02-18 12:55:00,52.2,42.7,29.80,South,182,9.0,10.0,70,0.00,,,0.00,Wunderground v.1.15,2013-02-18 18:55:00,
2013-02-18 13:05:00,51.9,42.4,29.79,South,173,9.0,9.0,70,0.00,,,0.00,Wunderground v.1.15,2013-02-18 19:05:00,
2013-02-18 13:10:00,51.9,42.4,29.79,South,184,9.0,9.0,70,0.00,,,0.00,Wunderground v.1.15,2013-02-18 19:10:00,
2013-02-18 13:15:00,51.8,42.3,29.79,South,169,9.0,9.0,70,0.00,,,0.00,Wunderground v.1.15,2013-02-18 19:15:00,
2013-02-18 13:25:00,51.4,42.3,29.78,SSW,200,10.0,13.0,71,0.00,,,0.00,Wunderground v.1.15,2013-02-18 19:25:00,
2013-02-18 13:30:00,51.3,42.2,29.78,South,191,11.0,12.0,71,0.00,,,0.00,Wunderground v.1.15,2013-02-18 19:30:00,
2013-02-18 13:40:00,51.2,42.5,29.77,SSW,193,11.0,11.0,72,0.00,,,0.00,Wunderground v.1.15,2013-02-18 19:40:00,
2013-02-18 13:45:00,51.2,42.5,29.77,South,175,11.0,20.0,72,0.00,,,0.00,Wunderground v.1.15,2013-02-18 19:45:00,
2013-02-18 13:55:00,51.2,42.8,29.77,South,177,11.0,12.0,73,0.00,,,0.00,Wunderground v.1.15,2013-02-18 19:55:00,
2013-02-18 14:05:00,51.3,42.9,29.76,South,170,10.0,13.0,73,0.00,,,0.00,Wunderground v.1.15,2013-02-18 20:05:00,
2013-02-18 14:10:00,51.1,42.7,29.76,South,172,9.0,9.0,73,0.00,,,0.00,Wunderground v.1.15,2013-02-18 20:10:00,
2013-02-18 14:20:00,50.8,42.8,29.76,South,177,8.0,8.0,74,0.00,,,0.00,Wunderground v.1.15,2013-02-18 20:20:00,
2013-02-18 14:25:00,50.6,42.6,29.76,South,171,7.0,8.0,74,0.00,,,0.00,Wunderground v.1.15,2013-02-18 20:25:00,
2013-02-18 14:30:00,50.5,42.9,29.76,SSE,165,7.0,14.0,75,0.00,,,0.00,Wunderground v.1.15,2013-02-18 20:30:00,
2013-02-18 14:40:00,50.3,42.7,29.75,South,189,8.0,10.0,75,0.00,,,0.00,Wunderground v.1.15,2013-02-18 20:40:00,
2013-02-18 14:50:00,49.9,43.6,29.75,SSW,198,8.0,8.0,79,0.00,,,0.01,Wunderground v.1.15,2013-02-18 20:50:00,
2013-02-18 15:00:00,49.1,43.8,29.75,South,177,7.0,7.0,82,0.21,,,0.03,Wunderground v.1.15,2013-02-18 21:00:00,
2013-02-18 15:10:00,48.5,43.9,29.75,SSE,160,8.0,11.0,84,0.07,,,0.04,Wunderground v.1.15,2013-02-18 21:10:00,
2013-02-18 15:20:00,48.2,43.9,29.75,SSW,207,8.0,8.0,85,0.04,,,0.04,Wunderground v.1.15,2013-02-18 21:20:00,
2013-02-18 15:30:00,47.8,43.5,29.74,South,185,8.0,11.0,85,0.00,,,0.05,Wunderground v.1.15,2013-02-18 21:30:00,
2013-02-18 15:35:00,47.7,43.7,29.74,SSE,161,9.0,11.0,86,0.00,,,0.05,Wunderground v.1.15,2013-02-18 21:35:00,
2013-02-18 15:45:00,47.6,43.6,29.74,SW,225,9.0,11.0,86,0.04,,,0.06,Wunderground v.1.15,2013-02-18 21:45:00,
2013-02-18 15:50:00,47.5,43.8,29.73,SSW,193,10.0,10.0,87,0.04,,,0.06,Wunderground v.1.15,2013-02-18 21:50:00,
2013-02-18 16:00:00,47.4,43.7,29.72,SSW,205,10.0,10.0,87,0.00,,,0.06,Wunderground v.1.15,2013-02-18 22:00:00,
2013-02-18 16:05:00,47.4,43.7,29.72,SSE,155,10.0,10.0,87,0.00,,,0.06,Wunderground v.1.15,2013-02-18 22:05:00,
2013-02-18 16:10:00,47.3,43.6,29.72,SSW,202,10.0,10.0,87,0.00,,,0.06,Wunderground v.1.15,2013-02-18 22:10:00,
2013-02-18 16:20:00,47.4,43.7,29.71,SSE,159,11.0,11.0,87,0.00,,,0.07,Wunderground v.1.15,2013-02-18 22:20:00,
2013-02-18 16:25:00,47.3,43.6,29.71,SSE,165,10.0,11.0,87,0.00,,,0.07,Wunderground v.1.15,2013-02-18 22:25:00,
2013-02-18 16:35:00,47.3,43.6,29.70,SSW,207,11.0,14.0,87,0.00,,,0.07,Wunderground v.1.15,2013-02-18 22:35:00,
2013-02-18 16:40:00,47.4,43.7,29.69,South,176,12.0,12.0,87,0.00,,,0.07,Wunderground v.1.15,2013-02-18 22:40:00,
2013-02-18 16:45:00,47.4,43.4,29.69,South,182,12.0,13.0,86,0.00,,,0.07,Wunderground v.1.15,2013-02-18 22:45:00,
2013-02-18 16:55:00,47.2,43.2,29.69,SSE,167,13.0,18.0,86,0.00,,,0.07,Wunderground v.1.15,2013-02-18 22:55:00,
2013-02-18 17:00:00,47.0,43.0,29.69,South,177,14.0,14.0,86,0.00,,,0.07,Wunderground v.1.15,2013-02-18 23:00:00,
2013-02-18 17:10:00,46.8,42.8,29.68,SSE,160,15.0,15.0,86,0.00,,,0.07,Wunderground v.1.15,2013-02-18 23:10:00,
2013-02-18 17:15:00,46.7,42.7,29.68,SSE,166,14.0,18.0,86,0.00,,,0.07,Wunderground v.1.15,2013-02-18 23:15:00,
2013-02-18 17:25:00,46.5,42.5,29.68,SSE,153,15.0,26.0,86,0.00,,,0.07,Wunderground v.1.15,2013-02-18 23:25:00,
2013-02-18 17:35:00,46.1,42.1,29.67,SSW,196,15.0,24.0,86,0.00,,,0.08,Wunderground v.1.15,2013-02-18 23:35:00,
2013-02-18 17:40:00,45.9,42.2,29.66,SSE,159,15.0,18.0,87,0.13,,,0.09,Wunderground v.1.15,2013-02-18 23:40:00,
2013-02-18 17:45:00,45.7,42.1,29.66,SSE,153,15.0,26.0,87,0.06,,,0.09,Wunderground v.1.15,2013-02-18 23:45:00,
2013-02-18 17:55:00,45.6,42.0,29.66,SSE,168,16.0,16.0,87,0.00,,,0.09,Wunderground v.1.15,2013-02-18 23:55:00,
2013-02-18 18:00:00,45.6,42.0,29.66,SSE,153,14.0,14.0,87,0.00,,,0.10,Wunderground v.1.15,2013-02-19 00:00:00,
2013-02-18 18:05:00,45.5,41.9,29.66,ESE,123,14.0,14.0,87,0.15,,,0.12,Wunderground v.1.15,2013-02-19 00:05:00,
2013-02-18 18:15:00,45.2,41.9,29.66,South,181,13.0,19.0,88,0.11,,,0.14,Wunderground v.1.15,2013-02-19 00:15:00,
2013-02-18 18:25:00,45.1,41.8,29.66,SE,136,13.0,14.0,88,0.15,,,0.16,Wunderground v.1.15,2013-02-19 00:25:00,
2013-02-18 18:30:00,45.0,41.7,29.66,South,171,12.0,12.0,88,0.18,,,0.18,Wunderground v.1.15,2013-02-19 00:30:00,
2013-02-18 18:35:00,45.0,42.0,29.66,SSE,156,11.0,12.0,89,0.09,,,0.18,Wunderground v.1.15,2013-02-19 00:35:00,
2013-02-18 18:45:00,45.0,42.0,29.66,South,186,13.0,15.0,89,0.07,,,0.20,Wunderground v.1.15,2013-02-19 00:45:00,
2013-02-18 18:50:00,45.0,42.0,29.65,SSE,149,11.0,13.0,89,0.05,,,0.21,Wunderground v.1.15,2013-02-19 00:50:00,
2013-02-18 18:55:00,44.9,41.9,29.65,SSW,198,11.0,13.0,89,0.05,,,0.21,Wunderground v.1.15,2013-02-19 00:55:00,
2013-02-18 19:05:00,44.8,41.8,29.64,SSE,161,11.0,11.0,89,0.08,,,0.23,Wunderground v.1.15,2013-02-19 01:05:00,
2013-02-18 19:10:00,44.8,41.8,29.63,SSE,160,11.0,19.0,89,0.08,,,0.23,Wunderground v.1.15,2013-02-19 01:10:00,
2013-02-18 19:20:00,44.9,41.9,29.63,SSE,148,11.0,17.0,89,0.05,,,0.24,Wunderground v.1.15,2013-02-19 01:20:00,
2013-02-18 19:25:00,45.0,42.0,29.63,South,182,13.0,17.0,89,0.05,,,0.24,Wunderground v.1.15,2013-02-19 01:25:00,
2013-02-18 19:30:00,45.2,42.2,29.62,South,170,12.0,18.0,89,0.05,,,0.24,Wunderground v.1.15,2013-02-19 01:30:00,
2013-02-18 19:40:00,45.4,42.3,29.62,SSE,162,14.0,14.0,89,0.00,,,0.25,Wunderground v.1.15,2013-02-19 01:40:00,
2013-02-18 19:45:00,45.4,42.3,29.62,South,169,14.0,17.0,89,0.14,,,0.26,Wunderground v.1.15,2013-02-19 01:45:00,
2013-02-18 19:55:00,45.4,42.3,29.61,South,184,12.0,13.0,89,0.15,,,0.29,Wunderground v.1.15,2013-02-19 01:55:00,
2013-02-18 20:05:00,45.5,42.4,29.61,SSE,157,12.0,16.0,89,0.12,,,0.30,Wunderground v.1.15,2013-02-19 02:05:00,
2013-02-18 20:10:00,45.4,42.3,29.60,South,176,12.0,12.0,89,0.12,,,0.32,Wunderground v.1.15,2013-02-19 02:10:00,
2013-02-18 20:20:00,45.5,42.7,29.60,SSW,192,10.0,14.0,90,0.11,,,0.34,Wunderground v.1.15,2013-02-19 02:20:00,
2013-02-18 20:30:00,45.6,42.8,29.59,SSE,166,11.0,15.0,90,0.08,,,0.35,Wunderground v.1.15,2013-02-19 02:30:00,
2013-02-18 20:40:00,45.7,42.9,29.59,SSE,165,10.0,15.0,90,0.08,,,0.36,Wunderground v.1.15,2013-02-19 02:40:00,
2013-02-18 20:45:00,45.8,43.0,29.58,SSE,155,9.0,15.0,90,0.17,,,0.38,Wunderground v.1.15,2013-02-19 02:45:00,
2013-02-18 20:55:00,45.8,43.0,29.58,SSE,167,9.0,10.0,90,0.11,,,0.40,Wunderground v.1.15,2013-02-19 02:55:00,
2013-02-18 21:05:00,45.9,43.1,29.57,WSW,244,11.0,17.0,90,0.07,,,0.41,Wunderground v.1.15,2013-02-19 03:05:00,
2013-02-18 21:15:00,45.9,43.1,29.58,SSW,200,13.0,17.0,90,0.40,,,0.44,Wunderground v.1.15,2013-02-19 03:15:00,
2013-02-18 21:25:00,44.6,41.0,29.61,West,275,22.0,22.0,87,0.06,,,0.44,Wunderground v.1.15,2013-02-19 03:25:00,
2013-02-18 21:35:00,42.6,38.7,29.63,West,262,20.0,25.0,86,0.00,,,0.45,Wunderground v.1.15,2013-02-19 03:35:00,
2013-02-18 21:45:00,40.2,36.1,29.65,West,262,20.0,20.0,85,0.00,,,0.45,Wunderground v.1.15,2013-02-19 03:45:00,
2013-02-18 21:55:00,38.2,34.1,29.66,WNW,285,17.0,19.0,85,0.04,,,0.46,Wunderground v.1.15,2013-02-19 03:55:00,
2013-02-18 22:00:00,37.1,33.0,29.66,WSW,258,16.0,16.0,85,0.04,,,0.46,Wunderground v.1.15,2013-02-19 04:00:00,
2013-02-18 22:10:00,35.5,31.7,29.67,West,259,14.0,16.0,86,0.00,,,0.46,Wunderground v.1.15,2013-02-19 04:10:00,
2013-02-18 22:20:00,34.8,31.3,29.69,WSW,256,14.0,17.0,87,0.00,,,0.47,Wunderground v.1.15,2013-02-19 04:20:00,
2013-02-18 22:30:00,34.7,31.5,29.70,West,262,15.0,17.0,88,0.00,,,0.47,Wunderground v.1.15,2013-02-19 04:30:00,
2013-02-18 22:35:00,34.7,31.5,29.70,WSW,249,16.0,18.0,88,0.00,,,0.47,Wunderground v.1.15,2013-02-19 04:35:00,
2013-02-18 22:45:00,34.7,31.5,29.71,WSW,254,16.0,21.0,88,0.00,,,0.47,Wunderground v.1.15,2013-02-19 04:45:00,
2013-02-18 22:55:00,33.9,30.4,29.72,WSW,255,24.0,24.0,87,0.00,,,0.47,Wunderground v.1.15,2013-02-19 04:55:00,
2013-02-18 23:00:00,33.5,29.8,29.73,WSW,257,22.0,22.0,86,0.00,,,0.47,Wunderground v.1.15,2013-02-19 05:00:00,
2013-02-18 23:05:00,33.3,29.6,29.73,West,268,21.0,26.0,86,0.00,,,0.47,Wunderground v.1.15,2013-02-19 05:05:00,
2013-02-18 23:10:00,33.1,29.7,29.73,WSW,244,21.0,30.0,87,0.00,,,0.47,Wunderground v.1.15,2013-02-19 05:10:00,
2013-02-18 23:20:00,32.7,29.0,29.75,WSW,254,26.0,26.0,86,0.00,,,0.47,Wunderground v.1.15,2013-02-19 05:20:00,
2013-02-18 23:30:00,32.3,28.3,29.75,West,262,22.0,29.0,85,0.00,,,0.47,Wunderground v.1.15,2013-02-19 05:30:00,
2013-02-18 23:40:00,32.0,28.0,29.76,WSW,255,22.0,22.0,85,0.00,,,0.47,Wunderground v.1.15,2013-02-19 05:40:00,
2013-02-18 23:45:00,31.8,27.5,29.77,WSW,250,21.0,30.0,84,0.00,,,0.47,Wunderground v.1.15,2013-02-19 05:45:00,
2013-02-18 23:55:00,31.2,26.3,29.78,West,263,24.0,24.0,82,0.00,,,0.47,Wunderground v.1.15,2013-02-19 05:55:00,